Wind_Speed
40 46 50 54 57 62 67 71 73 73 70 67 63 56 52 49 48 45 45 44 43 42 40 38 35 33 33 32 33 33 34 35 34 34 34 32 29 27 25 23 19 17 17 20
42 48 53 56 61 66 69 72 73 73 68 65 57 51 48 46 44 43 43 43 43 43 42 40 38 37 36 36 37 37 38 38 37 35 34 32 30 26 23 21 18 17 16 20
46 51 57 59 64 68 71 74 75 72 68 61 53 49 47 45 43 41 41 43 44 45 45 44 43 42 41 40 40 40 41 41 40 38 36 33 31 27 24 21 19 18 18 19
50 55 58 62 65 69 72 75 73 68 61 54 50 47 46 44 42 40 42 44 46 48 48 48 48 48 47 46 45 45 44 43 42 40 38 35 33 30 26 23 21 21 20 20
53 56 60 63 67 70 74 74 72 65 57 49 46 44 43 43 42 42 44 47 50 51 52 53 53 52 51 51 50 48 47 45 43 41 39 36 34 32 30 27 25 24 23 23
54 58 61 64 67 71 76 73 69 60 52 47 45 42 42 43 43 44 46 50 53 55 56 56 56 55 54 53 52 51 49 46 44 41 39 36 34 33 32 31 29 28 27 27
56 59 61 66 68 72 73 74 68 56 49 45 44 43 44 45 46 48 50 53 55 58 59 59 58 58 58 57 56 54 52 49 47 44 41 38 35 33 33 32 32 32 32 32
58 60 63 66 68 71 73 72 61 50 45 43 43 44 45 47 49 51 54 56 58 59 60 61 62 61 60 58 56 55 53 51 49 46 44 42 39 36 35 34 34 34 35 36
57 60 63 66 69 72 74 67 56 45 42 42 43 45 47 50 53 55 57 58 60 61 61 61 60 57 55 53 51 49 47 46 46 45 44 44 43 41 39 38 37 36 37 38
58 60 64 67 70 72 71 63 51 43 41 42 44 47 50 53 56 57 58 60 61 59 55 52 51 50 49 49 48 47 45 43 41 39 39 39 41 43 43 43 42 41 41 41
58 61 64 66 69 72 69 59 49 43 42 43 47 50 53 56 57 59 60 59 55 50 47 47 48 49 49 50 50 49 47 45 42 39 36 34 34 35 39 43 46 47 46 46
58 61 63 66 70 72 67 57 48 43 43 46 49 53 56 57 58 59 57 50 45 44 45 46 48 49 50 51 51 50 48 46 43 40 37 34 32 31 31 33 37 42 47 50
58 61 63 66 70 71 65 54 46 43 44 48 51 54 56 57 59 54 47 42 41 43 44 46 48 50 51 52 52 51 49 47 44 41 38 35 32 30 29 29 29 31 36 42
58 61 63 66 70 69 61 52 45 43 46 49 52 54 56 57 53 44 39 39 41 43 45 47 49 51 53 54 55 54 51 49 46 43 40 37 34 32 29 27 27 27 28 30
58 60 62 66 69 66 59 50 45 44 47 50 53 54 55 51 43 37 37 38 41 44 46 48 50 52 55 56 57 56 53 50 48 45 43 40 37 34 32 30 28 27 27 26
57 59 62 66 69 64 54 47 44 45 48 51 52 54 51 43 36 34 36 38 40 43 46 49 51 53 55 57 57 56 55 53 51 49 46 43 40 37 35 33 31 29 28 28
57 59 62 66 66 58 50 44 44 46 49 51 52 51 44 36 33 34 35 38 41 44 47 50 52 55 57 58 59 58 56 53 51 49 48 46 43 40 37 34 32 31 30 29
56 58 62 65 62 54 46 43 44 47 49 50 50 46 37 31 31 32 34 38 41 45 48 51 54 56 58 60 62 61 58 54 52 52 52 49 45 41 37 35 33 31 30 29
55 58 61 63 58 50 44 43 44 47 48 48 47 40 31 28 28 30 33 37 40 43 47 51 54 56 59 61 62 62 62 61 59 57 55 51 46 42 38 35 32 29 27 26
54 57 60 60 54 46 42 43 44 46 47 46 42 34 27 26 28 30 33 37 40 43 46 49 53 56 58 60 63 65 65 63 60 59 56 51 47 43 40 35 31 27 24 22
53 57 59 56 49 43 41 42 44 45 45 44 37 28 24 24 26 30 34 37 41 43 45 48 52 55 57 61 64 65 63 62 61 60 58 54 50 46 42 37 32 27 23 19
53 56 56 52 45 41 40 41 43 44 43 40 32 24 22 23 26 30 35 38 40 42 44 46 50 54 57 61 63 63 61 60 60 60 61 59 56 53 48 43 37 31 25 20
52 55 54 48 42 39 39 40 42 42 41 37 27 21 20 23 26 31 35 37 39 41 43 45 48 52 56 59 61 61 59 57 57 59 62 64 63 61 57 52 47 41 35 29
52 53 50 44 39 37 38 40 41 41 39 33 23 18 19 22 27 31 35 37 39 40 42 43 45 50 53 56 58 60 59 56 54 55 58 60 62 63 62 61 58 55 50 46
50 50 46 40 37 36 37 38 39 39 37 29 19 15 18 22 26 30 33 35 38 39 40 40 42 46 50 53 56 58 59 57 55 54 55 56 57 57 57 58 59 59 58 56
48 47 42 37 34 34 36 37 38 37 33 24 16 14 17 21 25 29 32 34 36 38 38 38 39 42 46 50 53 56 58 58 56 55 55 55 55 55 54 54 53 53 53 52
46 43 38 34 32 32 34 36 36 35 30 20 13 12 15 19 23 27 30 32 35 36 37 36 36 39 43 47 50 52 54 56 58 58 57 55 54 53 53 53 52 52 51 50
Wind_Direction
330 330 332 333 332 330 329 330 330 331 330 330 329 329 331 333 333 333 333 333 335 338 340 340 337 335 332 330 328 326 323 320 317 315 311 308 309 312 315 317 311 291 269 249
331 331 332 334 333 332 331 331 332 332 333 332 333 333 334 334 333 333 334 336 338 338 338 338 336 333 329 326 324 321 319 318 316 314 310 306 303 304 306 307 304 292 273 252
332 332 334 335 335 332 331 333 335 335 336 336 337 336 335 335 334 333 335 337 338 337 336 335 333 330 327 324 321 318 316 315 313 312 309 304 298 295 294 292 292 287 275 260
334 335 335 337 334 333 333 335 337 337 338 339 336 335 334 334 332 332 334 335 336 335 334 333 331 328 325 323 320 318 316 313 312 310 308 304 297 290 284 280 277 276 273 262
335 335 336 337 336 334 334 336 338 338 340 340 337 336 334 334 333 332 332 332 332 332 331 330 328 325 323 321 318 316 314 312 310 307 305 302 297 289 281 273 268 265 263 261
336 335 336 337 335 334 336 337 339 339 341 341 340 339 337 335 333 332 331 330 329 328 327 326 325 323 320 318 316 314 312 309 307 304 301 298 295 289 280 272 265 260 257 255
336 336 336 336 335 335 336 338 340 340 341 342 340 339 337 335 333 332 330 329 327 326 325 324 322 321 318 316 314 311 308 306 303 300 297 294 290 286 280 273 265 258 254 252
337 336 335 335 334 336 337 339 339 340 341 342 340 339 337 335 333 331 329 328 327 326 325 324 322 321 319 317 315 312 308 304 300 295 291 287 284 280 277 272 266 259 254 251
335 334 334 334 335 336 338 339 339 339 340 340 340 339 337 335 332 331 330 329 328 328 327 327 327 328 328 328 326 323 319 313 306 299 291 285 279 274 270 268 265 261 256 252
334 332 333 335 335 337 340 339 337 336 337 338 339 338 336 334 333 332 331 331 331 332 334 337 340 342 343 342 341 338 335 331 325 317 307 295 285 276 270 265 262 259 257 254
334 333 333 333 334 337 340 338 334 333 335 336 337 337 336 335 335 334 334 335 337 342 347 351 353 352 351 350 348 346 344 342 338 333 326 317 305 292 280 271 264 260 256 254
333 332 332 332 334 338 339 337 333 331 333 335 336 336 336 337 337 337 338 342 349 354 357 356 356 355 355 354 352 351 349 346 344 342 338 332 325 315 302 289 277 268 262 256
332 331 331 332 335 338 338 336 332 331 332 334 336 337 337 338 338 340 346 353 357 358 358 358 358 358 357 356 355 354 352 350 348 347 344 340 335 329 321 311 300 287 275 267
330 329 330 333 335 338 338 335 333 332 333 335 337 338 338 339 342 348 354 358 359 359 359 360 360 360 359 358 357 356 355 353 351 349 347 343 338 334 329 323 316 308 296 285
329 329 330 333 335 337 337 335 334 334 336 338 339 339 340 343 348 355 359 0 1 1 2 1 1 0 360 360 359 358 357 356 355 352 348 344 339 335 330 326 321 316 310 303
328 329 331 333 336 338 337 336 335 336 338 339 340 341 343 347 354 359 2 3 3 3 2 2 1 1 1 1 360 359 358 357 356 353 349 345 339 334 329 324 320 315 311 307
327 329 332 334 337 337 336 336 336 338 339 340 341 343 346 352 359 2 4 4 4 4 4 3 2 2 2 1 1 0 359 357 354 352 349 345 340 335 329 323 318 312 307 304
327 329 332 334 336 336 336 336 337 338 340 341 342 345 351 358 2 4 4 4 4 4 4 4 4 3 3 3 3 2 0 359 357 355 352 348 344 338 332 326 320 312 306 301
327 329 332 334 336 335 335 336 338 339 341 343 344 348 354 1 5 6 6 5 4 4 4 4 4 4 4 4 3 3 4 4 2 359 355 352 349 345 340 334 328 320 311 304
327 329 332 334 335 334 335 337 339 340 342 344 347 351 358 4 6 6 5 4 4 4 4 4 5 5 5 5 5 7 8 7 5 3 2 0 358 355 351 347 342 335 326 316
326 330 333 334 334 334 335 337 340 342 344 346 348 354 1 6 7 5 4 3 2 3 4 5 7 7 7 8 10 11 11 12 12 11 11 11 9 7 4 1 356 351 345 336
326 330 332 333 333 333 335 338 341 343 345 347 350 356 3 6 6 5 3 2 3 4 5 7 8 9 10 11 13 14 15 16 18 20 22 22 21 20 18 16 14 11 7 1
326 330 332 332 332 333 336 339 342 344 345 348 352 359 5 6 5 3 2 2 4 6 8 9 10 12 13 14 15 17 18 19 21 25 29 30 31 31 31 31 31 31 30 30
327 330 331 331 331 334 337 340 343 344 345 348 352 0 5 5 4 3 3 5 7 9 9 11 13 15 15 16 17 19 21 21 23 26 30 32 34 36 38 41 43 45 48 50
327 329 330 330 331 334 337 340 342 344 345 347 351 360 5 5 4 4 5 8 10 10 10 13 15 17 17 18 19 22 23 24 25 28 31 32 34 36 39 42 45 49 52 55
327 329 329 329 330 333 336 340 342 343 344 345 349 358 4 5 5 6 8 10 11 11 12 14 17 18 19 19 21 24 25 26 27 30 32 34 35 37 39 41 44 46 49 52
326 327 327 328 329 333 336 339 341 342 342 342 346 356 3 4 5 7 9 11 11 12 13 15 18 20 20 20 22 25 27 28 30 32 34 35 36 37 39 41 43 45 47 49
Height
5782 5773 5764 5755 5745 5732 5717 5702 5687 5671 5654 5640 5626 5614 5603 5593 5584 5575 5566 5557 5548 5539 5530 5522 5515 5508 5501 5495 5489 5483 5478 5472 5466 5460 5454 5448 5442 5437 5431 5425 5421 5418 5417 5417
5776 5766 5756 5746 5734 5720 5706 5691 5676 5660 5647 5632 5618 5607 5598 5589 5579 5570 5561 5552 5543 5534 5526 5518 5510 5503 5496 5490 5483 5476 5470 5464 5458 5452 5446 5440 5435 5430 5425 5421 5417 5414 5413 5413
5769 5758 5747 5737 5724 5710 5695 5680 5665 5650 5636 5620 5608 5599 5590 5582 5573 5564 5555 5546 5537 5529 5520 5512 5504 5496 5489 5482 5475 5468 5461 5454 5448 5442 5436 5431 5426 5422 5418 5415 5412 5409 5408 5408
5760 5750 5739 5731 5715 5700 5684 5669 5653 5638 5624 5611 5600 5592 5583 5576 5567 5559 5550 5541 5532 5523 5514 5505 5497 5488 5480 5472 5465 5457 5450 5443 5437 5431 5425 5420 5416 5412 5410 5407 5405 5403 5402 5402
5751 5741 5730 5719 5705 5689 5675 5662 5646 5631 5619 5609 5599 5589 5579 5571 5561 5552 5543 5535 5525 5516 5506 5497 5488 5479 5470 5462 5453 5445 5438 5431 5424 5419 5414 5409 5405 5401 5399 5397 5396 5395 5395 5394
5742 5731 5720 5711 5696 5680 5666 5654 5638 5624 5612 5603 5593 5585 5577 5566 5556 5547 5537 5528 5518 5508 5498 5488 5478 5468 5458 5449 5441 5432 5424 5417 5411 5406 5401 5397 5393 5389 5387 5386 5385 5385 5385 5385
5733 5722 5712 5700 5686 5672 5660 5648 5631 5617 5606 5596 5586 5578 5569 5560 5551 5541 5531 5521 5511 5499 5488 5477 5466 5456 5446 5436 5427 5418 5409 5402 5396 5391 5386 5383 5379 5377 5374 5373 5372 5372 5373 5374
5725 5713 5705 5690 5677 5664 5651 5634 5621 5610 5599 5590 5581 5573 5564 5555 5545 5535 5525 5514 5502 5490 5477 5465 5454 5443 5432 5421 5411 5401 5393 5385 5379 5374 5370 5366 5364 5362 5360 5358 5358 5358 5359 5360
5718 5708 5695 5682 5669 5654 5640 5627 5614 5604 5595 5586 5578 5569 5559 5550 5540 5529 5517 5505 5492 5480 5467 5454 5441 5430 5419 5407 5397 5387 5377 5369 5361 5355 5351 5348 5346 5344 5343 5342 5342 5343 5344 5345
5709 5698 5685 5673 5659 5646 5632 5619 5608 5599 5590 5582 5573 5564 5554 5544 5533 5521 5509 5496 5483 5470 5458 5446 5434 5422 5411 5399 5388 5377 5367 5357 5349 5341 5335 5330 5327 5325 5325 5324 5324 5326 5327 5328
5702 5690 5678 5666 5653 5639 5626 5613 5603 5594 5586 5577 5568 5559 5549 5538 5526 5513 5501 5487 5475 5463 5452 5441 5430 5419 5407 5395 5383 5372 5361 5350 5341 5332 5324 5318 5313 5309 5307 5306 5306 5307 5309 5310
5695 5684 5673 5661 5646 5633 5620 5608 5598 5589 5581 5572 5563 5553 5542 5531 5519 5506 5493 5481 5470 5460 5450 5440 5429 5417 5405 5393 5381 5369 5357 5346 5336 5326 5318 5310 5303 5298 5293 5290 5289 5288 5289 5291
5687 5676 5666 5653 5640 5626 5614 5603 5593 5585 5576 5568 5558 5547 5536 5524 5512 5500 5488 5478 5469 5460 5450 5439 5428 5416 5404 5391 5379 5366 5354 5343 5332 5322 5313 5305 5298 5291 5285 5280 5276 5273 5271 5271
5680 5669 5658 5645 5632 5619 5608 5597 5589 5580 5572 5563 5553 5542 5530 5519 5506 5495 5486 5478 5469 5459 5449 5438 5427 5415 5403 5390 5377 5364 5351 5339 5328 5318 5309 5301 5293 5286 5279 5273 5268 5263 5259 5256
5672 5662 5651 5638 5626 5614 5602 5592 5584 5576 5567 5557 5547 5536 5525 5513 5503 5494 5486 5477 5468 5458 5448 5437 5426 5414 5402 5389 5375 5362 5349 5337 5326 5315 5305 5296 5287 5280 5273 5266 5260 5255 5250 5246
5664 5654 5643 5631 5620 5607 5596 5587 5579 5571 5561 5552 5542 5531 5521 5510 5501 5494 5486 5478 5469 5459 5449 5438 5427 5415 5402 5389 5375 5362 5348 5334 5322 5311 5301 5291 5281 5272 5265 5258 5252 5246 5241 5237
5656 5646 5635 5624 5613 5601 5591 5583 5575 5566 5557 5547 5537 5527 5517 5508 5500 5493 5486 5478 5469 5459 5449 5438 5426 5414 5401 5389 5375 5361 5347 5333 5321 5309 5296 5285 5274 5264 5256 5249 5242 5237 5232 5228
5649 5639 5629 5619 5607 5597 5588 5579 5571 5563 5553 5543 5533 5524 5515 5507 5501 5494 5486 5478 5469 5459 5448 5438 5426 5414 5402 5388 5374 5359 5346 5333 5318 5304 5291 5278 5266 5256 5247 5239 5232 5226 5221 5218
5643 5634 5624 5613 5602 5593 5584 5576 5568 5559 5549 5540 5530 5522 5514 5508 5502 5495 5488 5480 5471 5461 5451 5439 5428 5416 5402 5388 5375 5360 5344 5327 5312 5299 5286 5273 5260 5249 5239 5230 5223 5216 5211 5208
5636 5627 5618 5607 5597 5588 5580 5572 5564 5555 5546 5536 5528 5520 5514 5508 5502 5495 5488 5480 5471 5461 5452 5442 5431 5418 5405 5392 5376 5358 5342 5328 5314 5299 5284 5270 5257 5245 5234 5224 5216 5209 5203 5200
5630 5621 5611 5601 5592 5584 5577 5569 5561 5552 5543 5534 5526 5519 5514 5508 5503 5496 5489 5481 5472 5463 5453 5443 5432 5420 5408 5393 5377 5361 5347 5332 5318 5302 5287 5272 5258 5245 5233 5222 5213 5205 5199 5195
5623 5614 5605 5596 5587 5580 5573 5565 5557 5549 5540 5532 5524 5519 5514 5509 5503 5497 5489 5482 5473 5464 5455 5445 5434 5423 5409 5395 5382 5367 5353 5339 5325 5310 5295 5279 5264 5250 5237 5225 5214 5206 5199 5193
5617 5608 5599 5591 5583 5577 5570 5562 5554 5546 5538 5530 5524 5519 5514 5509 5504 5498 5491 5483 5474 5465 5456 5447 5437 5426 5414 5401 5388 5375 5361 5348 5335 5320 5305 5289 5275 5260 5247 5234 5222 5212 5204 5197
5610 5602 5593 5586 5579 5573 5566 5559 5551 5543 5536 5529 5523 5519 5515 5510 5505 5498 5491 5483 5475 5466 5458 5449 5440 5430 5419 5408 5396 5383 5369 5356 5344 5330 5316 5302 5289 5276 5264 5251 5239 5228 5218 5210
5603 5596 5588 5581 5575 5569 5563 5556 5548 5541 5534 5528 5523 5519 5515 5511 5506 5499 5492 5485 5477 5469 5461 5452 5444 5435 5425 5415 5403 5390 5377 5364 5352 5339 5327 5315 5303 5292 5280 5269 5258 5248 5238 5230
5597 5590 5583 5577 5572 5566 5560 5553 5546 5539 5532 5526 5522 5519 5515 5511 5506 5500 5493 5486 5479 5471 5464 5456 5448 5440 5431 5421 5410 5398 5386 5375 5363 5350 5338 5327 5316 5306 5295 5285 5275 5266 5257 5250
5591 5584 5578 5573 5568 5562 5556 5550 5543 5536 5530 5525 5522 5519 5515 5512 5507 5501 5495 5488 5481 5474 5467 5460 5452 5445 5436 5427 5417 5406 5396 5385 5374 5362 5350 5339 5329 5319 5309 5300 5291 5282 5274 5267